BEESAT-4 (41619 NORAD) Tracking and Keplerian Element Data

This shows tracking and keplerian element data for the satellite.

Feedback or suggestion? Click here.




ElementValue
Catalog41619
NameBEESAT-4
Epoch Orbit12079
Epoch Day317.41005462
Epoch Year2018
RAAN18.3839
Inclination97.398
Eccentricity0.0013056
Argument of Perigee70.3764
Mean Anonmoly289.888
Mean Motion15.22538703
Decay Rate1.494E-05
L11 41619U 16040W 18317.41005462 .00001494 00000-0 67286-4 0 9995
L22 41619 97.3980 18.3839 0013056 70.3764 289.8880 15.22538703120791

Live tracking and technical data element details for BEESAT-4 (NORAD 41619). BEESAT-4 can be tracked NOW for your location showing map with azimuth and elevation plus other details from your city location.

Track the satellite on the map from your city or location and see movement details for azimuth, elevation, latitude, longitude, range, height, and movement on the map or in text.







IsCatalogInMostPopularTable: catalog: 41619, numindb: 138
Update: records affected: 1



GetName: 41619 BEESAT-4

Hit Count: updated at: Wed, 14 Nov 2018 15:50:50 GMT